Tracking 25963 objects as of 12-Aug-2022
HD Live streaming from Space Station
objects crossing your sky now

COSMOS 637

Track COSMOS 637 now!
COSMOS 637 is classified as:


NORAD ID: 7229
Int'l Code: 1974-017A
Perigee: 35,492.1 km
Apogee: 35,814.3 km
Inclination: 4.4 °
Period: 1,428.9 minutes
Semi major axis: 42024 km
RCS: 2.5118 m2 (large)
Launch date: March 26, 1974
Source: Commonwealth of Independent States (former USSR) (CIS)
Launch site: TYURATAM MISSILE AND SPACE COMPLEX (TTMTR)
aabbcc
Your satellite tracking list
Your tracking list is empty




NASA's NSSDC Master Catalog

Two Line Element Set (TLE):
1 07229U 74017A   22224.39176274 -.00000195  00000-0  00000-0 0  9996
2 07229   4.4224 283.1340 0038326  26.0999 116.7650  1.00775250108042
Source of the keplerian elements: AFSPC